Location: *
(32.8140°S, 174.6161°E)
Time: 13:28:39
(UTC+00:00)

Cosmos 2263 Rocket - Pass Details

Date: 10 December 2019
Orbit: 824 x 848 km, 71.0° (Epoch: 24 January)

Event Time Altitude Azimuth Distance (km) Brightness Sun altitude
Rises 16:24:45 0° 216° (SW) 3,430 5.4 -8.3°
Reaches altitude 10° 16:27:39 10° 229° (SW) 2,484 4.5 -7.8°
Maximum altitude 16:32:06 24° 281° (W) 1,683 3.3 -7.0°
Drops below altitude 10° 16:36:31 10° 333° (NNW) 2,447 4.1 -6.3°
Sets 16:39:22 0° 346° (NNW) 3,368 4.9 -5.8°
